User: anonymous   Login
Location: Turtle Rock Observatory
(36.6913°N, 81.9708°W)
Time: 16:42:40
(UTC-04:00)
Language:

Cosmos 1125 Rocket - Orbit

View from above orbital plane
View from above orbital plane
View from above satellite
View from above satellite

Ground track
Ground track

The orbit data is extracted from the following two-line orbital elements,

1 11511U 79078B   18144.89546631 +.00000026 +00000-0 +17756-4 0  9998
2 11511 074.0385 047.2207 0016263 210.6910 149.3293 14.36810201027407
Epoch (UTC): 24 May 2018 21:29:28
Eccentricity: 0.0016263
inclination: 74.0385°
perigee height: 757 km
apogee height: 780 km
right ascension of ascending node: 47.2207°
argument of perigee: 210.6910°
revolutions per day: 14.36810201
mean anomaly at epoch: 149.3293°
orbit number at epoch: 2740

The dashed part of the orbit path shows where the satellite is in the earth's shadow,  

DLR